When you browse on this site, cookies collect data to enhance your experience and personalize the content and advertising you see.
Visit our Privacy Policy to learn more. By continuing to use the site, you agree to this use of cookies and data.
  • In Switzerland
  • List of Countries
  • For 7 days
  • Water Temperature
  • Weather Map
  • Weather Widgets
  • user-avatar
    Login

    Hourly Weather Aurich

    Today, 28 May, Thursday

    Time Temperature Precipitation Wind Pressure Humidity
    00:00 +7°C° 0 mm 4 mps 776 mmHg 91%
    01:00 +7°C° 0 mm 4 mps 776 mmHg 92%
    02:00 +7°C° 0 mm 4 mps 776 mmHg 92%
    03:00 +7°C° 0 mm 4 mps 775 mmHg 92%
    04:00 +8°C° 0 mm 4 mps 775 mmHg 87%
    05:00 +10°C° 0 mm 4 mps 775 mmHg 82%
    06:00 +11°C° 0 mm 4 mps 775 mmHg 77%
    07:00 +12°C° 0 mm 4 mps 775 mmHg 74%
    08:00 +13°C° 0 mm 5 mps 775 mmHg 71%
    09:00 +14°C° 0 mm 5 mps 775 mmHg 68%
    10:00 +14°C° 0 mm 5 mps 775 mmHg 66%
    11:00 +14°C° 0 mm 5 mps 775 mmHg 65%
    12:00 +14°C° 0 mm 5 mps 775 mmHg 63%
    13:00 +14°C° 0 mm 5 mps 775 mmHg 64%
    14:00 +14°C° 0 mm 5 mps 775 mmHg 65%
    15:00 +13°C° 0 mm 5 mps 774 mmHg 66%
    16:00 +13°C° 0 mm 5 mps 774 mmHg 69%
    17:00 +12°C° 0 mm 5 mps 774 mmHg 73%
    18:00 +11°C° 0 mm 4 mps 774 mmHg 76%
    19:00 +10°C° 0 mm 4 mps 774 mmHg 81%
    20:00 +7°C° 0 mm 4 mps 774 mmHg 85%
    21:00 +7°C° 0 mm 3 mps 774 mmHg 90%
    22:00 +7°C° 0 mm 3 mps 774 mmHg 90%
    23:00 +5°C° 0 mm 3 mps 774 mmHg 91%

    Tomorrow, 29 May, Friday

    Time Temperature Precipitation Wind Pressure Humidity
    00:00 +5°C° 0 mm 3 mps 774 mmHg 91%
    01:00 +6°C° 0 mm 2 mps 774 mmHg 91%
    02:00 +6°C° 0 mm 2 mps 774 mmHg 91%
    03:00 +6°C° 0 mm 2 mps 774 mmHg 91%
    04:00 +8°C° 0 mm 2 mps 773 mmHg 88%
    05:00 +9°C° 0 mm 2 mps 773 mmHg 85%
    06:00 +12°C° 0 mm 2 mps 773 mmHg 82%
    07:00 +13°C° 0 mm 2 mps 773 mmHg 78%
    08:00 +14°C° 0 mm 2 mps 773 mmHg 73%
    09:00 +16°C° 0 mm 2 mps 773 mmHg 68%
    10:00 +16°C° 0 mm 3 mps 773 mmHg 65%
    11:00 +17°C° 0 mm 3 mps 773 mmHg 62%
    12:00 +17°C° 0 mm 3 mps 772 mmHg 60%
    13:00 +17°C° 0 mm 3 mps 772 mmHg 61%
    14:00 +17°C° 0 mm 4 mps 771 mmHg 62%
    15:00 +17°C° 0 mm 4 mps 771 mmHg 64%
    16:00 +14°C° 0 mm 4 mps 771 mmHg 67%
    17:00 +13°C° 0 mm 4 mps 770 mmHg 71%
    18:00 +12°C° 0 mm 4 mps 770 mmHg 75%
    19:00 +11°C° 0 mm 4 mps 770 mmHg 79%
    20:00 +10°C° 0 mm 4 mps 770 mmHg 84%
    21:00 +7°C° 0 mm 4 mps 770 mmHg 89%
    22:00 +7°C° 0 mm 4 mps 770 mmHg 90%
    23:00 +8°C° 0 mm 3 mps 770 mmHg 91%

    Day after tomorrow, 30 May, Saturday

    Time Temperature Precipitation Wind Pressure Humidity
    00:00 +9°C° 0 mm 3 mps 770 mmHg 91%
    01:00 +8°C° 0 mm 3 mps 770 mmHg 87%
    02:00 +8°C° 0 mm 3 mps 770 mmHg 83%
    03:00 +7°C° 0 mm 3 mps 770 mmHg 79%
    04:00 +9°C° 0 mm 3 mps 770 mmHg 77%
    05:00 +10°C° 0 mm 3 mps 770 mmHg 75%
    06:00 +11°C° 0 mm 3 mps 770 mmHg 73%
    07:00 +13°C° 0 mm 3 mps 770 mmHg 71%
    08:00 +16°C° 0 mm 3 mps 770 mmHg 69%
    09:00 +17°C° 0 mm 3 mps 770 mmHg 67%
    10:00 +18°C° 0 mm 4 mps 770 mmHg 65%
    11:00 +18°C° 0 mm 4 mps 770 mmHg 63%
    12:00 +17°C° 0 mm 5 mps 770 mmHg 62%
    13:00 +17°C° 0 mm 5 mps 769 mmHg 63%
    14:00 +17°C° 0 mm 5 mps 769 mmHg 64%
    15:00 +17°C° 0 mm 5 mps 769 mmHg 65%
    16:00 +17°C° 0 mm 5 mps 769 mmHg 70%
    17:00 +16°C° 0 mm 5 mps 768 mmHg 75%
    18:00 +15°C° 0 mm 5 mps 768 mmHg 80%
    19:00 +13°C° 0 mm 4 mps 769 mmHg 79%
    20:00 +12°C° 0 mm 4 mps 769 mmHg 78%
    21:00 +11°C° 0 mm 4 mps 769 mmHg 77%
    22:00 +10°C° 0 mm 4 mps 769 mmHg 77%
    23:00 +8°C° 0 mm 4 mps 769 mmHg 76%

    31 May, Sunday

    Time Temperature Precipitation Wind Pressure Humidity
    00:00 +7°C° 0 mm 4 mps 769 mmHg 76%
    01:00 +7°C° 0 mm 4 mps 769 mmHg 78%
    02:00 +8°C° 0 mm 3 mps 769 mmHg 80%
    03:00 +7°C° 0 mm 3 mps 769 mmHg 82%
    04:00 +9°C° 0 mm 3 mps 769 mmHg 80%
    05:00 +11°C° 0 mm 3 mps 769 mmHg 78%
    06:00 +13°C° 0 mm 3 mps 769 mmHg 77%
    07:00 +14°C° 0 mm 3 mps 769 mmHg 72%
    08:00 +16°C° 0 mm 3 mps 769 mmHg 67%
    09:00 +17°C° 0 mm 3 mps 769 mmHg 63%
    10:00 +18°C° 0 mm 3 mps 769 mmHg 62%
    11:00 +19°C° 0 mm 4 mps 768 mmHg 62%
    12:00 +19°C° 0 mm 4 mps 768 mmHg 61%
    13:00 +19°C° 0 mm 4 mps 768 mmHg 62%
    14:00 +19°C° 0 mm 5 mps 768 mmHg 63%
    15:00 +19°C° 0 mm 5 mps 768 mmHg 65%
    16:00 +19°C° 0 mm 5 mps 768 mmHg 68%
    17:00 +17°C° 0 mm 5 mps 768 mmHg 71%
    18:00 +16°C° 0 mm 5 mps 768 mmHg 74%
    19:00 +15°C° 0 mm 5 mps 768 mmHg 77%
    20:00 +13°C° 0 mm 5 mps 768 mmHg 79%
    21:00 +12°C° 0 mm 5 mps 768 mmHg 81%
    22:00 +10°C° 0 mm 5 mps 768 mmHg 83%
    23:00 +10°C° 0 mm 5 mps 768 mmHg 85%

    1 June, Monday

    Time Temperature Precipitation Wind Pressure Humidity
    00:00 +9°C° 0 mm 5 mps 768 mmHg 86%
    01:00 +8°C° 0 mm 5 mps 768 mmHg 88%
    02:00 +8°C° 0 mm 4 mps 768 mmHg 91%
    03:00 +7°C° 0 mm 4 mps 768 mmHg 93%
    04:00 +8°C° 0 mm 4 mps 767 mmHg 90%
    05:00 +11°C° 0 mm 4 mps 767 mmHg 88%
    06:00 +12°C° 0 mm 5 mps 767 mmHg 85%
    07:00 +13°C° 0 mm 5 mps 767 mmHg 82%
    08:00 +15°C° 0 mm 5 mps 767 mmHg 79%
    09:00 +17°C° 0 mm 5 mps 767 mmHg 76%
    10:00 +19°C° 0 mm 5 mps 767 mmHg 73%
    11:00 +20°C° 0 mm 5 mps 767 mmHg 71%
    12:00 +21°C° 0 mm 5 mps 766 mmHg 69%
    13:00 +22°C° 0 mm 5 mps 766 mmHg 69%
    14:00 +22°C° 0 mm 5 mps 766 mmHg 69%
    15:00 +22°C° 0 mm 4 mps 765 mmHg 68%
    16:00 +22°C° 0 mm 4 mps 765 mmHg 72%
    17:00 +21°C° 0 mm 4 mps 765 mmHg 76%
    18:00 +21°C° 0 mm 4 mps 765 mmHg 80%
    19:00 +19°C° 0 mm 4 mps 765 mmHg 84%
    20:00 +17°C° 0 mm 4 mps 765 mmHg 89%
    21:00 +15°C° 0 mm 4 mps 765 mmHg 93%
    22:00 +14°C° 0 mm 4 mps 765 mmHg 93%
    23:00 +14°C° 0 mm 4 mps 765 mmHg 94%

    2 June, Tuesday

    Time Temperature Precipitation Wind Pressure Humidity
    00:00 +13°C° 0 mm 4 mps 765 mmHg 94%
    01:00 +13°C° 0 mm 3 mps 765 mmHg 94%
    02:00 +12°C° 0 mm 3 mps 765 mmHg 95%
    03:00 +12°C° 0 mm 3 mps 765 mmHg 95%
    04:00 +13°C° 0 mm 3 mps 765 mmHg 92%
    05:00 +14°C° 0 mm 3 mps 765 mmHg 90%
    06:00 +16°C° 0 mm 3 mps 765 mmHg 87%
    07:00 +18°C° 0 mm 4 mps 765 mmHg 81%
    08:00 +20°C° 0 mm 4 mps 765 mmHg 75%
    09:00 +21°C° 0 mm 4 mps 765 mmHg 70%
    10:00 +22°C° 0 mm 4 mps 764 mmHg 66%
    11:00 +23°C° 0 mm 5 mps 764 mmHg 63%
    12:00 +23°C° 0 mm 5 mps 764 mmHg 60%
    13:00 +23°C° 0 mm 5 mps 763 mmHg 62%
    14:00 +23°C° 0 mm 5 mps 763 mmHg 64%
    15:00 +23°C° 0 mm 4 mps 763 mmHg 66%
    16:00 +22°C° 0 mm 4 mps 763 mmHg 70%
    17:00 +22°C° 0 mm 4 mps 762 mmHg 73%
    18:00 +21°C° 0 mm 3 mps 762 mmHg 77%
    19:00 +20°C° 0 mm 3 mps 762 mmHg 79%
    20:00 +18°C° 0 mm 3 mps 763 mmHg 82%
    21:00 +17°C° 0 mm 3 mps 763 mmHg 84%
    22:00 +16°C° 0 mm 3 mps 763 mmHg 86%
    23:00 +14°C° 0 mm 3 mps 763 mmHg 87%
    Show more